GW4358 Weather Reports


Display with metric or nautical units.
time (UTC)temp
F
wind
direction
speed
MPH
gust
MPH
rain 1hr
in
rain 24hr
in
rain mn
in
humidity
%
barometer
mb
20260504204558 8 224 5.0 13.0 0.01 0.13 0.09 1009.9
20260504203102 9 250 4.0 21.0 0.01 0.13 0.09 1010.1
20260504201542 9 286 5.0 14.0 0.01 0.13 0.09 1010.3
20260504200038 8 260 3.0 15.0 0.02 0.13 0.09 1010.5
20260504194535 8 221 6.0 13.0 0.01 0.13 0.08 1010.8
20260504193029 9 213 4.0 13.0 0.01 0.13 0.08 1011.0
20260504191526 10 224 4.0 13.0 0.01 0.13 0.08 1011.1
20260504190021 9 207 3.0 9.0 0.00 0.12 0.07 1011.3
20260504184515 9 220 3.0 12.0 0.01 0.12 0.07 1011.4
20260504183011 9 277 1.0 9.0 0.01 0.12 0.07 1011.5
20260504181507 7 250 2.0 11.0 0.01 0.12 0.07 1011.6
20260504180006 6 217 2.0 12.0 0.01 0.12 0.07 1011.8
20260504174601 7 245 5.0 13.0 0.00 0.12 0.06 1012.1
20260504173057 9 271 3.0 12.0 0.00 0.12 0.06 1012.3
20260504171549 9 216 2.0 10.0 0.00 0.12 0.06 1012.5
20260504081511 5 223 3.0 10.0 0.01 0.15 0.02 1013.1
20260504050014 5 185 4.0 10.0 0.00 0.14 0.00 1014.7
20260504044514 5 242 3.0 9.0 0.01 0.14 0.14 1014.7
20260504043005 4 232 3.0 8.0 0.01 0.14 0.14 1014.8
20260504041601 5 248 3.0 9.0 0.01 0.14 0.14 1015.0
20260504040100 5 232 3.0 7.0 0.01 0.14 0.14 1015.0
20260504034552 5 228 3.0 8.0 0.00 0.13 0.13 1015.2
20260504033055 5 213 3.0 7.0 0.00 0.13 0.13 1015.3
20260504031547 5 211 1.0 4.0 0.00 0.13 0.13 1015.4
20260504030042 5 212 0.0 5.0 0.00 0.13 0.13 1015.5
20260504024535 4 215 0.0 4.0 0.00 0.13 0.13 1015.4
20260504023030 5 217 1.0 5.0 0.00 0.13 0.13 1015.4
20260504021528 5 222 2.0 7.0 0.00 0.13 0.13 1015.4
20260504020028 4 213 2.0 6.0 0.01 0.13 0.13 1015.3
20260504014533 5 222 2.0 6.0 0.01 0.13 0.13 1015.0
20260504013014 4 219 1.0 6.0 0.01 0.13 0.13 1014.9
20260504011508 5 225 1.0 5.0 0.01 0.13 0.13 1014.8
20260504010004 5 225 2.0 4.0 0.00 0.12 0.12 1014.7
20260504004559 4 221 2.0 6.0 0.00 0.12 0.12 1014.7
20260504003054 5 245 1.0 3.0 0.00 0.12 0.12 1014.6
20260504001600 4 245 0.0 3.0 0.00 0.12 0.12 1014.7
20260504000049 4 244 0.0 4.0 0.01 0.12 0.12 1015.0
20260503234543 4 245 0.0 4.0 0.01 0.12 0.12 1015.1
20260503233037 4 245 0.0 2.0 0.01 0.12 0.12 1015.2
20260503231541 4 248 0.0 4.0 0.01 0.12 0.12 1015.3
20260503230031 4 246 0.0 2.0 0.00 0.11 0.11 1015.5
20260503224528 4 257 0.0 5.0 0.00 0.11 0.11 1015.5
20260503223019 4 238 0.0 6.0 0.00 0.11 0.11 1015.5
20260503221515 3 227 0.0 6.0 0.00 0.11 0.11 1015.6
20260503220014 4 266 1.0 7.0 0.00 0.11 0.11 1015.8
20260503214521 4 251 0.0 4.0 0.00 0.11 0.11 1016.1
20260503213002 5 225 1.0 5.0 0.01 0.11 0.11 1016.2
20260503211557 4 252 1.0 5.0 0.01 0.11 0.11 1016.3
20260503210057 4 208 2.0 10.0 0.01 0.11 0.11 1016.4